Regional Weather Roundup
Issued by NWS Cleveland, OH

Home | Current Version | Previous Version | Graphics & Text | Print | Product List | Glossary On
Versions: 1 2 3 4 5 6 7 8 9 10 11 12 13 14 15 16 17 18 19 20 21 22 23 24 25 26 27 28 29 30 31 32 33 34 35 36 37 38 39 40 41 42 43 44 45 46 47 48 49 50
000
ASUS41 KCLE 192312
RWRCLE
OHIO REGIONAL WEATHER ROUNDUP
NATIONAL WEATHER SERVICE WILMINGTON, OH
600 PM EST THU JAN 19 2017

NOTE: "FAIR" INDICATES FEW OR NO CLOUDS BELOW 12,000 FEET WITH NO
SIGNIFICANT WEATHER AND/OR OBSTRUCTIONS TO VISIBILITY.

OHZ001>008-015>018-024>027-034-035-043-044-200000-
   NORTHWEST OHIO

CITY           SKY/WX    TMP DP  RH WIND       PRES   REMARKS
DEFIANCE       CLOUDY    38  34  85 SE5       29.95S
FINDLAY        FAIR      40  34  79 E3        29.94S
TOLEDO EXPRESS MOCLDY    38  36  92 E3        29.95F
TOLEDO EXEC    CLOUDY    38  35  89 S5        29.98R
LIMA           FAIR      40  38  93 SE6       29.93F
$$

OHZ009>014-019>023-028>033-038-089-200000-
   NORTHEAST OHIO

CITY           SKY/WX    TMP DP  RH WIND       PRES   REMARKS
CLE-HOPKINS    MOCLDY    39  32  76 S6        29.99F
CLE-LAKEFRONT  FAIR      35  33  92 NE7       29.97F WCI  29
CUY CO. ARPT   CLOUDY    41  36  81 SE5       29.97F
LORAIN-ELYRIA  FAIR      38  32  79 S3        29.97F
ASHTABULA      FAIR      36  33  89 E5        30.00F
AKRON-CANTON   CLOUDY    38  33  82 S8        29.98S
WOOSTER        CLOUDY    37  34  89 S9        29.98S
MANSFIELD      FAIR      38  35  89 S8        29.95S
YOUNGSTOWN     MOCLDY    38  33  82 SE3       29.99F
$$

OHZ042-051>053-060>062-070>072-077>081-200000-
  SOUTHWEST OHIO

CITY           SKY/WX    TMP DP  RH WIND       PRES   REMARKS
CINC-COVINGTON CLOUDY    49  40  71 E12       29.87F
CINC-LUNKEN    CLOUDY    50  40  68 E3        29.90F
HAMILTON       MOCLDY    49  42  77 E8        29.90F
DAYTON         CLOUDY    44  39  82 E9        29.91F
WRIGHT-PAT AFB CLOUDY    45  41  86 E7        29.91F
DAYTON GENERAL FAIR      47  40  76 E6        29.89F
WILMINGTON     FAIR      46  40  79 E8        29.91F
$$

OHZ036-037-039>041-045>050-054>059-063>069-073>076-082>088-200000-
  CENTRAL AND SOUTHEAST OHIO

CITY           SKY/WX    TMP DP  RH WIND       PRES   REMARKS
COLUMBUS       CLOUDY    43  36  76 SE7       29.96F
OSU AIRPORT    FAIR      42  37  82 SE9       29.95F
BOLTON FIELD   CLEAR     43  37  81 E6        29.95F
RICKENBACK AFB   N/A     41  38  88 E3        29.95F
NEWARK         FAIR      41  35  79 E7        29.96F
MARION         FAIR      39  36  89 SE7       29.96R
LANCASTER      FAIR      44  38  79 E9        29.96F
ZANESVILLE     CLOUDY    41  36  82 E6        29.98S
NEW PHILLY     CLOUDY    40  36  86 SE6       30.00F
$$



USA.gov is the U.S. government's official web portal to all federal, state and local government web resources and services.